Location: Newark
(30.2328°N, 54.2869°E)
Time: 09:00:17
(UTC+00:00)

Envisat - Visible Passes

Search period start: 24 July 2019 00:00
Search period end: 03 August 2019 00:00
Orbit: 764 x 766 km, 98.1° (Epoch: 24 July)

Date Brightness Start Highest point End Pass type
(mag) Time Alt. Az. Time Alt. Az. Time Alt. Az.
26 Jul 5.3 15:39:21 10° SSW 15:43:34 26° W 15:47:47 10° NW visible
28 Jul 5.9 16:06:43 10° WSW 16:09:14 14° W 16:11:46 10° WNW visible
31 Jul 5.7 15:54:29 10° SW 15:57:55 18° W 16:01:22 10° NW visible
